Time,TemperatureF,DewpointF,PressureIn,WindDirection,WindDirectionDegrees,WindSpeedMPH,WindSpeedGustMPH,Humidity,HourlyPrecipIn,Conditions,Clouds,dailyrainin,SoftwareType,DateUTC
2013-02-08 00:08:00,16.4,4.0,29.28,NNW,346,0.0,5.0,59,0.00,,,0.00,weatherlink.com 1.10,2013-02-08 05:08:00,
2013-02-08 00:23:00,16.4,4.0,29.28,NNW,337,0.0,4.0,59,0.00,,,0.00,weatherlink.com 1.10,2013-02-08 05:23:00,
2013-02-08 00:39:00,16.3,4.0,29.27,North,357,3.0,8.0,59,0.00,,,0.00,weatherlink.com 1.10,2013-02-08 05:39:00,
2013-02-08 00:54:00,16.3,4.0,29.27,ESE,103,0.0,6.0,58,0.00,,,0.00,weatherlink.com 1.10,2013-02-08 05:54:00,
2013-02-08 01:09:00,16.3,4.0,29.26,NNE,26,0.0,2.0,58,0.00,,,0.00,weatherlink.com 1.10,2013-02-08 06:09:00,
2013-02-08 01:24:00,16.3,3.0,29.26,NNW,328,1.0,7.0,56,0.00,,,0.00,weatherlink.com 1.10,2013-02-08 06:24:00,
2013-02-08 01:39:00,16.2,3.0,29.26,North,350,0.0,6.0,57,0.00,,,0.00,weatherlink.com 1.10,2013-02-08 06:39:00,
2013-02-08 01:54:00,16.2,3.0,29.25,NNW,328,2.0,8.0,56,0.00,,,0.00,weatherlink.com 1.10,2013-02-08 06:54:00,
2013-02-08 02:09:00,16.1,3.0,29.25,North,5,1.0,6.0,56,0.00,,,0.00,weatherlink.com 1.10,2013-02-08 07:09:00,
2013-02-08 02:24:00,16.0,3.0,29.25,NNW,336,3.0,4.0,56,0.00,,,0.00,weatherlink.com 1.10,2013-02-08 07:24:00,
2013-02-08 02:39:00,15.9,3.0,29.24,WNW,302,4.0,6.0,56,0.00,,,0.00,weatherlink.com 1.10,2013-02-08 07:39:00,
2013-02-08 02:54:00,15.8,3.0,29.23,North,354,4.0,7.0,57,0.00,,,0.00,weatherlink.com 1.10,2013-02-08 07:54:00,
2013-02-08 03:09:00,15.8,3.0,29.22,NE,44,1.0,9.0,58,0.00,,,0.00,weatherlink.com 1.10,2013-02-08 08:09:00,
2013-02-08 03:24:00,15.7,4.0,29.21,NNE,26,2.0,6.0,59,0.00,,,0.00,weatherlink.com 1.10,2013-02-08 08:24:00,
2013-02-08 03:39:00,15.8,4.0,29.20,North,359,5.0,6.0,59,0.00,,,0.00,weatherlink.com 1.10,2013-02-08 08:39:00,
2013-02-08 03:54:00,15.7,4.0,29.20,NNE,23,4.0,9.0,60,0.00,,,0.00,weatherlink.com 1.10,2013-02-08 08:54:00,
2013-02-08 04:09:00,15.6,5.0,29.19,NNE,23,2.0,6.0,62,0.00,,,0.00,weatherlink.com 1.10,2013-02-08 09:09:00,
2013-02-08 04:24:00,15.5,7.0,29.19,NNW,332,1.0,7.0,68,0.00,,,0.00,weatherlink.com 1.10,2013-02-08 09:24:00,
2013-02-08 04:39:00,15.1,8.0,29.18,NNE,18,1.0,6.0,73,0.00,,,0.00,weatherlink.com 1.10,2013-02-08 09:39:00,
2013-02-08 04:54:00,14.9,9.0,29.19,NNE,23,3.0,8.0,78,0.00,,,0.00,weatherlink.com 1.10,2013-02-08 09:54:00,
2013-02-08 05:09:00,14.7,10.0,29.19,North,357,4.0,5.0,81,0.00,,,0.00,weatherlink.com 1.10,2013-02-08 10:09:00,
2013-02-08 05:24:00,14.5,10.0,29.19,NNW,337,2.0,7.0,83,0.00,,,0.00,weatherlink.com 1.10,2013-02-08 10:24:00,
2013-02-08 05:39:00,14.4,10.0,29.18,NNW,340,8.0,8.0,84,0.00,,,0.00,weatherlink.com 1.10,2013-02-08 10:39:00,
2013-02-08 05:54:00,14.4,11.0,29.17,NNW,337,2.0,8.0,86,0.00,,,0.00,weatherlink.com 1.10,2013-02-08 10:54:00,
2013-02-08 06:09:00,14.4,11.0,29.17,North,356,3.0,8.0,87,0.00,,,0.00,weatherlink.com 1.10,2013-02-08 11:09:00,
2013-02-08 06:24:00,14.3,11.0,29.17,North,359,3.0,9.0,88,0.00,,,0.00,weatherlink.com 1.10,2013-02-08 11:24:00,
2013-02-08 06:39:00,14.4,12.0,29.16,North,355,1.0,8.0,88,0.00,,,0.00,weatherlink.com 1.10,2013-02-08 11:39:00,
2013-02-08 06:54:00,14.6,12.0,29.16,NNW,334,4.0,9.0,89,0.00,,,0.00,weatherlink.com 1.10,2013-02-08 11:54:00,
2013-02-08 07:09:00,14.6,12.0,29.16,NE,44,5.0,9.0,89,0.00,,,0.00,weatherlink.com 1.10,2013-02-08 12:09:00,
2013-02-08 07:24:00,14.7,12.0,29.16,NNE,27,4.0,9.0,90,0.00,,,0.00,weatherlink.com 1.10,2013-02-08 12:24:00,
2013-02-08 07:40:00,14.9,13.0,29.16,NNE,27,2.0,8.0,90,0.00,,,0.00,weatherlink.com 1.10,2013-02-08 12:40:00,
2013-02-08 07:56:00,15.0,13.0,29.16,NE,37,2.0,7.0,90,0.00,,,0.00,weatherlink.com 1.10,2013-02-08 12:56:00,
2013-02-08 08:10:00,15.0,13.0,29.15,NE,37,2.0,6.0,90,0.00,,,0.00,weatherlink.com 1.10,2013-02-08 13:10:00,
2013-02-08 08:25:00,15.0,13.0,29.15,NNE,30,4.0,5.0,90,0.00,,,0.00,weatherlink.com 1.10,2013-02-08 13:25:00,
2013-02-08 08:40:00,15.2,13.0,29.15,North,352,3.0,5.0,91,0.00,,,0.00,weatherlink.com 1.10,2013-02-08 13:40:00,
2013-02-08 08:55:00,15.2,13.0,29.14,ENE,72,1.0,7.0,91,0.00,,,0.00,weatherlink.com 1.10,2013-02-08 13:55:00,
2013-02-08 09:10:00,15.4,13.0,29.13,NE,41,0.0,3.0,91,0.00,,,0.00,weatherlink.com 1.10,2013-02-08 14:10:00,
2013-02-08 09:25:00,15.5,13.0,29.12,ENE,68,0.0,1.0,91,0.00,,,0.00,weatherlink.com 1.10,2013-02-08 14:25:00,
2013-02-08 09:40:00,15.7,14.0,29.12,ENE,58,0.0,1.0,91,0.00,,,0.00,weatherlink.com 1.10,2013-02-08 14:40:00,
2013-02-08 09:55:00,16.0,14.0,29.12,East,86,1.0,2.0,91,0.00,,,0.00,weatherlink.com 1.10,2013-02-08 14:55:00,
2013-02-08 10:10:00,16.2,14.0,29.12,East,92,0.0,1.0,91,0.00,,,0.00,weatherlink.com 1.10,2013-02-08 15:10:00,
2013-02-08 10:25:00,16.3,14.0,29.12,NNW,333,0.0,2.0,92,0.00,,,0.00,weatherlink.com 1.10,2013-02-08 15:25:00,
2013-02-08 10:40:00,16.6,15.0,29.12,NE,40,1.0,3.0,92,0.00,,,0.00,weatherlink.com 1.10,2013-02-08 15:40:00,
2013-02-08 10:55:00,16.5,15.0,29.11,North,6,1.0,5.0,92,0.00,,,0.00,weatherlink.com 1.10,2013-02-08 15:55:00,
2013-02-08 11:10:00,16.7,15.0,29.10,ENE,64,0.0,4.0,92,0.00,,,0.00,weatherlink.com 1.10,2013-02-08 16:10:00,
2013-02-08 11:25:00,17.0,15.0,29.09,NNE,23,2.0,5.0,92,0.00,,,0.00,weatherlink.com 1.10,2013-02-08 16:25:00,
2013-02-08 11:40:00,17.3,15.0,29.08,NNE,32,0.0,3.0,92,0.00,,,0.00,weatherlink.com 1.10,2013-02-08 16:40:00,
2013-02-08 11:55:00,17.9,16.0,29.06,North,9,0.0,3.0,92,0.00,,,0.00,weatherlink.com 1.10,2013-02-08 16:55:00,
2013-02-08 12:10:00,18.0,16.0,29.05,NNE,27,1.0,4.0,91,0.00,,,0.00,weatherlink.com 1.10,2013-02-08 17:10:00,
2013-02-08 12:25:00,18.3,16.0,29.04,West,271,0.0,2.0,92,0.00,,,0.00,weatherlink.com 1.10,2013-02-08 17:25:00,
2013-02-08 12:40:00,18.2,16.0,29.03,NW,311,0.0,5.0,91,0.00,,,0.00,weatherlink.com 1.10,2013-02-08 17:40:00,
2013-02-08 12:56:00,18.2,16.0,29.03,NW,304,0.0,3.0,91,0.00,,,0.00,weatherlink.com 1.10,2013-02-08 17:56:00,
2013-02-08 13:10:00,18.3,16.0,29.02,NE,40,0.0,5.0,91,0.00,,,0.00,weatherlink.com 1.10,2013-02-08 18:10:00,
2013-02-08 13:25:00,18.5,16.0,29.01,NNE,27,0.0,4.0,91,0.00,,,0.00,weatherlink.com 1.10,2013-02-08 18:25:00,
2013-02-08 13:40:00,18.6,16.0,28.99,SSE,159,2.0,4.0,91,0.00,,,0.00,weatherlink.com 1.10,2013-02-08 18:40:00,
2013-02-08 13:55:00,18.5,16.0,28.98,East,99,0.0,3.0,91,0.00,,,0.00,weatherlink.com 1.10,2013-02-08 18:55:00,
2013-02-08 14:10:00,18.3,16.0,28.96,SSW,212,0.0,4.0,91,0.00,,,0.00,weatherlink.com 1.10,2013-02-08 19:10:00,
2013-02-08 14:26:00,17.8,16.0,28.96,NNW,333,0.0,5.0,91,0.00,,,0.00,weatherlink.com 1.10,2013-02-08 19:26:00,
2013-02-08 14:40:00,17.8,16.0,28.95,NW,311,2.0,5.0,91,0.00,,,0.00,weatherlink.com 1.10,2013-02-08 19:40:00,
2013-02-08 14:56:00,17.7,16.0,28.95,NNW,336,0.0,4.0,92,0.00,,,0.00,weatherlink.com 1.10,2013-02-08 19:56:00,
2013-02-08 15:11:00,17.5,16.0,28.95,East,90,0.0,8.0,92,0.00,,,0.00,weatherlink.com 1.10,2013-02-08 20:11:00,
2013-02-08 15:27:00,17.4,15.0,28.94,ENE,72,0.0,9.0,91,0.00,,,0.00,weatherlink.com 1.10,2013-02-08 20:27:00,
2013-02-08 15:41:00,17.4,15.0,28.92,North,359,0.0,3.0,91,0.00,,,0.00,weatherlink.com 1.10,2013-02-08 20:41:00,
2013-02-08 15:56:00,17.3,15.0,28.91,ENE,72,2.0,5.0,91,0.00,,,0.00,weatherlink.com 1.10,2013-02-08 20:56:00,
2013-02-08 16:11:00,17.1,15.0,28.91,SE,136,0.0,4.0,91,0.00,,,0.00,weatherlink.com 1.10,2013-02-08 21:11:00,
2013-02-08 16:26:00,16.9,15.0,28.90,NNE,27,1.0,3.0,91,0.00,,,0.00,weatherlink.com 1.10,2013-02-08 21:26:00,
2013-02-08 16:41:00,16.8,14.0,28.90,North,356,0.0,6.0,90,0.00,,,0.00,weatherlink.com 1.10,2013-02-08 21:41:00,
2013-02-08 16:56:00,16.6,14.0,28.89,ENE,65,1.0,6.0,90,0.00,,,0.00,weatherlink.com 1.10,2013-02-08 21:56:00,
2013-02-08 17:11:00,16.4,14.0,28.88,West,266,0.0,4.0,91,0.00,,,0.00,weatherlink.com 1.10,2013-02-08 22:11:00,
2013-02-08 17:26:00,16.1,14.0,28.88,SSE,158,0.0,1.0,91,0.00,,,0.00,weatherlink.com 1.10,2013-02-08 22:26:00,
2013-02-08 17:41:00,15.4,13.0,28.88,SSE,163,0.0,2.0,91,0.00,,,0.00,weatherlink.com 1.10,2013-02-08 22:41:00,
2013-02-08 17:56:00,14.9,13.0,28.87,SE,142,0.0,1.0,91,0.00,,,0.00,weatherlink.com 1.10,2013-02-08 22:56:00,
2013-02-08 18:11:00,14.6,13.0,28.87,South,183,0.0,1.0,91,0.00,,,0.00,weatherlink.com 1.10,2013-02-08 23:11:00,
2013-02-08 18:26:00,14.2,12.0,28.86,SSW,204,0.0,1.0,90,0.00,,,0.00,weatherlink.com 1.10,2013-02-08 23:26:00,
2013-02-08 18:41:00,14.0,12.0,28.86,SSW,205,0.0,1.0,91,0.00,,,0.00,weatherlink.com 1.10,2013-02-08 23:41:00,
2013-02-08 18:56:00,13.9,12.0,28.85,SSW,213,0.0,3.0,91,0.00,,,0.00,weatherlink.com 1.10,2013-02-08 23:56:00,
2013-02-08 19:11:00,13.9,12.0,28.85,North,356,0.0,2.0,91,0.00,,,0.00,weatherlink.com 1.10,2013-02-09 00:11:00,
2013-02-08 19:26:00,13.9,12.0,28.84,South,191,1.0,4.0,91,0.00,,,0.00,weatherlink.com 1.10,2013-02-09 00:26:00,
2013-02-08 19:41:00,13.9,12.0,28.83,SSE,152,1.0,3.0,91,0.00,,,0.00,weatherlink.com 1.10,2013-02-09 00:41:00,
2013-02-08 19:56:00,14.0,12.0,28.82,SSE,153,0.0,2.0,91,0.00,,,0.00,weatherlink.com 1.10,2013-02-09 00:56:00,
2013-02-08 20:11:00,13.9,12.0,28.82,WSW,257,0.0,4.0,91,0.00,,,0.00,weatherlink.com 1.10,2013-02-09 01:11:00,
2013-02-08 20:26:00,13.9,12.0,28.81,ENE,77,0.0,6.0,91,0.00,,,0.00,weatherlink.com 1.10,2013-02-09 01:26:00,
2013-02-08 20:41:00,13.8,12.0,28.80,ENE,72,0.0,3.0,91,0.00,,,0.00,weatherlink.com 1.10,2013-02-09 01:41:00,
2013-02-08 20:56:00,13.8,12.0,28.80,WSW,241,0.0,7.0,91,0.00,,,0.00,weatherlink.com 1.10,2013-02-09 01:56:00,
2013-02-08 21:11:00,13.7,12.0,28.79,East,98,0.0,2.0,91,0.00,,,0.00,weatherlink.com 1.10,2013-02-09 02:11:00,
2013-02-08 21:27:00,13.7,12.0,28.78,SSW,212,0.0,2.0,91,0.00,,,0.00,weatherlink.com 1.10,2013-02-09 02:27:00,
2013-02-08 21:41:00,13.9,12.0,28.78,SSE,158,0.0,4.0,91,0.00,,,0.00,weatherlink.com 1.10,2013-02-09 02:41:00,
2013-02-08 21:57:00,13.4,11.0,28.76,SW,228,0.0,1.0,91,0.00,,,0.00,weatherlink.com 1.10,2013-02-09 02:57:00,
2013-02-08 22:12:00,13.3,11.0,28.75,NE,55,0.0,2.0,91,0.00,,,0.00,weatherlink.com 1.10,2013-02-09 03:12:00,
2013-02-08 22:26:00,13.4,11.0,28.73,NW,311,0.0,2.0,91,0.00,,,0.00,weatherlink.com 1.10,2013-02-09 03:26:00,
2013-02-08 22:41:00,13.6,12.0,28.73,East,80,0.0,3.0,91,0.00,,,0.00,weatherlink.com 1.10,2013-02-09 03:41:00,
2013-02-08 22:57:00,13.7,12.0,28.71,NNW,333,0.0,4.0,91,0.00,,,0.00,weatherlink.com 1.10,2013-02-09 03:57:00,
2013-02-08 23:12:00,13.7,12.0,28.70,SSE,162,0.0,2.0,91,0.00,,,0.00,weatherlink.com 1.10,2013-02-09 04:12:00,
2013-02-08 23:27:00,13.7,12.0,28.69,SSW,210,0.0,3.0,91,0.00,,,0.00,weatherlink.com 1.10,2013-02-09 04:27:00,
2013-02-08 23:42:00,13.8,12.0,28.69,SSW,212,0.0,3.0,91,0.00,,,0.00,weatherlink.com 1.10,2013-02-09 04:42:00,
2013-02-08 23:57:00,13.9,12.0,28.69,SW,221,0.0,2.0,91,0.00,,,0.00,weatherlink.com 1.10,2013-02-09 04:57:00,